Flag for Japan Weather past 2 weeks in Nagano, Japan

Now
74 °F

Mild.


Feels Like: 77 °F
Forecast: 49 / 69 °F
Wind: 5 mph from Northeast

Location: Nagano

Current Time: Sep 17, 2014 at 1:40:35 PM

Latest Report: Sep 17, 2014 at 1:00 PM


Visibility: N/A

Pressure: 29.88 "Hg

Humidity: 58%

Dew point: 58 °F

Location of NaganoLocation

Historic Weather in Nagano — Graph

°F

Nagano temperature yesterday

Maximum temperature yesterday: 79 °F (at 12:00 PM)
Minimum temperature yesterday: 61 °F (at 6:00 AM)
Average temperature yesterday: 68 °F

Past Weeks' High & Low Weather Summary

 TemperatureHumidityPressure
High83 °F (Sep 6, 2:00 PM)97% (Sep 11, 4:00 AM)30.03 "Hg (Sep 11, 4:00 AM)
Low56 °F (Sep 12, 6:00 AM)41% (Sep 7, 3:00 PM)29.61 "Hg (Sep 8, 4:00 PM)
Average69 °F73%29.86 "Hg
* Reported Sep 2 11:00 AM — Sep 17 11:00 AM, Nagano, Weather by CustomWeather, © 2014

Note: Actual official high and low records may vary slightly from our data, if they occured in-between our weather recording intervals... More about our weather records

Advertising

Nagano weather history for previous 24 hours

 ConditionsComfort  
Time TempWeatherWind HumidityBarometerVisibility
11:00 AM
Sep 17
69 °FMild.5 mph61%29.94 "HgN/A
10:00 AM69 °FMild.1 mph63%29.96 "HgN/A
9:00 AM67 °FScattered clouds.6 mph66%30.00 "Hg9 mi
8:00 AM64 °FMild.3 mph74%30.00 "HgN/A
7:00 AM61 °FCool.3 mph83%30.02 "HgN/A
6:00 AM60 °FCool.2 mph86%30.03 "HgN/A
5:00 AM59 °FCool.2 mph87%30.00 "HgN/A
4:00 AM59 °FCool.2 mph87%30.00 "HgN/A
3:00 AM61 °FPassing clouds.2 mph85%30.00 "Hg9 mi
2:00 AM61 °FCool.2 mph84%29.99 "HgN/A
1:00 AM62 °FCool.3 mph81%30.00 "HgN/A
12:00 AM64 °FMild.5 mph75%29.98 "HgN/A
11:00 PM
Sep 16
66 °FMild.3 mph78%29.97 "HgN/A
10:00 PM67 °FMild.8 mph76%29.96 "HgN/A
9:00 PM67 °FOvercast.6 mph78%29.95 "Hg9 mi
8:00 PM67 °FMild.6 mph77%29.94 "HgN/A
7:00 PM68 °FMild.8 mph76%29.92 "HgN/A
6:00 PM69 °FMild.7 mph73%29.90 "HgN/A
5:00 PM71 °FMild.10 mph67%29.87 "HgN/A
4:00 PM74 °FMild.7 mph60%29.85 "HgN/A
3:00 PM75 °FScattered clouds.12 mph59%29.83 "Hg12 mi
2:00 PM77 °FMild.9 mph52%29.82 "HgN/A
1:00 PM76 °FMild.10 mph55%29.83 "HgN/A
Weather by CustomWeather, © 2014

See weather overviewHow to use our weather pages